Date,TemperatureHighF,TemperatureAvgF,TemperatureLowF,DewpointHighF,DewpointAvgF,DewpointLowF,HumidityHigh,HumidityAvg,HumidityLow,PressureMaxIn,PressureMinIn,WindSpeedMaxMPH,WindSpeedAvgMPH,GustSpeedMaxMPH,PrecipitationSumIn
2014-1-1,33.9,27.2,17.5,22.1,12.8,5.7,91,56,34,30.31,29.93,20,4,22,0.01
2014-1-2,43.0,31.3,19.7,11.8,6.3,1.2,55,35,26,30.39,30.15,15,4,20,0.00
2014-1-3,43.6,35.6,31.4,12.2,8.2,4.9,42,32,24,30.15,29.67,24,7,31,0.00
2014-1-4,33.1,18.4,4.4,18.8,9.4,0.6,87,71,41,30.11,29.61,18,3,20,0.00
2014-1-5,12.3,5.5,1.3,0.8,-5.8,-12.2,84,60,43,30.62,30.11,13,3,20,0.00
2014-1-6,30.1,18.2,2.3,8.1,-1.1,-12.1,54,42,34,30.69,30.48,21,6,28,0.00
2014-1-7,39.6,30.9,25.4,14.3,10.2,5.7,56,42,32,30.48,29.97,19,5,24,0.01
2014-1-8,34.4,25.8,22.6,15.2,13.2,11.2,72,59,44,30.11,29.98,12,2,14,0.01
2014-1-9,32.0,24.8,20.7,15.0,12.2,8.3,78,59,39,30.08,29.80,21,5,30,0.00
2014-1-10,26.3,21.4,15.0,14.8,5.4,-3.0,81,50,41,30.12,29.78,25,8,31,0.00
2014-1-11,43.6,32.8,24.7,19.8,14.7,9.2,58,47,36,30.26,29.81,20,6,25,0.00
2014-1-12,32.8,24.5,15.4,19.8,9.2,-1.6,80,52,38,30.10,29.64,29,6,33,0.00
2014-1-13,33.7,23.5,15.2,10.1,5.3,-1.9,51,45,35,30.32,30.10,25,8,34,0.00
2014-1-14,33.2,25.9,21.6,9.1,7.6,5.6,55,46,33,30.48,30.23,28,6,28,0.00
2014-1-15,39.7,30.6,22.7,14.2,10.8,8.2,55,44,34,30.42,30.22,23,6,27,0.00
2014-1-16,39.9,28.6,21.5,8.7,6.0,3.2,51,38,25,30.33,30.20,16,3,19,0.00
2014-1-17,39.5,29.4,21.5,13.4,8.8,4.9,50,42,33,30.30,30.18,18,5,23,0.00
2014-1-18,45.0,33.1,24.7,13.7,8.6,5.7,45,36,26,30.32,30.19,15,2,17,0.00
2014-1-19,44.4,35.8,28.2,13.6,9.1,3.1,41,33,27,30.24,30.06,20,6,26,0.00
2014-1-20,41.6,33.1,26.5,13.8,8.1,1.4,48,35,28,30.41,30.05,15,3,21,0.00
2014-1-21,45.9,34.9,26.3,2.6,-4.0,-10.5,35,19,13,30.41,30.16,22,6,28,0.00
2014-1-22,37.8,26.9,14.7,11.5,-2.3,-14.2,86,32,16,30.17,29.93,11,2,12,0.00
2014-1-23,21.9,14.1,6.8,14.0,8.0,3.0,87,77,47,30.72,30.17,11,2,16,0.03
2014-1-24,41.4,31.1,21.0,7.2,1.3,-9.8,48,28,19,30.70,30.37,21,7,24,0.00
2014-1-25,49.7,37.4,25.8,18.8,12.5,4.5,45,36,26,30.37,29.94,19,5,21,0.00
2014-1-26,42.9,32.8,18.7,16.6,12.4,9.4,87,44,31,29.95,29.78,19,4,21,0.00
2014-1-27,32.7,15.1,2.5,16.5,7.7,-1.5,90,75,43,30.27,29.90,15,3,18,0.00
2014-1-28,27.2,13.5,-0.9,7.4,-1.5,-7.1,95,57,27,30.51,30.24,16,3,16,0.05
2014-1-29,40.2,31.1,21.3,22.4,8.9,-6.2,63,40,28,30.42,29.70,25,7,33,0.00
2014-1-30,35.7,28.8,23.6,28.5,24.4,16.1,93,84,51,29.69,29.59,24,5,33,0.02
2014-1-31,26.6,22.9,18.7,24.3,19.6,16.3,93,87,76,29.77,29.59,13,1,14,0.00
2014-2-1,23.5,15.3,8.0,17.4,12.1,4.7,90,87,76,30.21,29.77,10,1,12,0.05
2014-2-2,25.2,14.5,3.0,11.7,4.7,-1.7,88,66,44,30.33,30.13,28,4,33,0.15
2014-2-3,30.3,19.5,11.6,12.7,7.6,1.3,86,60,44,30.15,29.87,20,4,29,0.00
2014-2-4,18.0,8.9,-2.5,13.1,4.9,-6.6,87,84,75,30.36,29.92,10,2,13,0.01
2014-2-5,16.2,1.7,-8.9,4.9,-4.6,-13.7,92,75,54,30.55,30.36,10,2,13,0.00
2014-2-6,26.4,16.6,7.0,11.0,5.1,-0.7,72,61,43,30.47,30.06,27,5,27,0.00
2014-2-7,30.2,22.1,15.4,13.5,9.9,7.2,73,60,45,30.06,29.95,18,6,25,0.00
2014-2-8,36.0,28.9,23.0,20.1,15.5,7.7,66,57,47,30.12,29.99,21,5,26,0.01
2014-2-9,41.9,34.2,30.2,27.8,23.4,19.7,86,65,48,30.05,29.85,23,6,35,0.00
2014-2-10,35.9,28.3,21.2,28.2,22.3,17.6,91,79,60,30.13,29.87,13,2,13,0.10
2014-2-11,36.1,24.3,14.2,18.2,9.4,2.1,88,56,27,30.24,30.07,24,4,24,0.03
2014-2-12,39.6,30.2,17.6,22.2,12.6,4.8,59,48,31,30.26,29.98,26,7,36,0.00
2014-2-13,43.4,37.3,32.4,25.2,22.6,20.3,74,56,45,30.05,29.82,27,8,30,0.00
2014-2-14,43.1,37.1,32.1,25.7,22.2,17.8,74,55,42,30.01,29.83,29,8,34,0.00
2014-2-15,49.3,42.1,37.1,24.9,21.3,17.1,59,44,31,29.97,29.91,25,8,32,0.00
2014-2-16,47.4,38.5,33.4,24.0,18.7,10.4,61,45,34,29.96,29.73,28,6,30,0.00
2014-2-17,44.1,34.4,25.9,10.4,4.0,-3.0,38,28,19,30.18,29.96,20,6,30,0.00
2014-2-18,47.0,39.4,32.0,10.6,6.2,0.6,40,25,18,29.97,29.89,24,5,30,0.00
2014-2-19,43.4,31.7,19.7,25.0,16.1,8.2,89,55,32,29.89,29.47,19,4,27,0.00
2014-2-20,22.6,17.1,9.9,16.0,-1.5,-6.5,86,45,31,30.24,29.58,25,6,31,0.00
2014-2-21,33.4,25.4,17.3,9.9,4.3,-4.2,59,41,28,30.24,30.04,23,6,23,0.00
2014-2-22,35.9,29.4,24.3,14.9,8.5,3.1,50,41,33,30.04,29.88,26,6,27,0.00
2014-2-23,44.3,34.6,26.3,11.9,8.7,6.2,48,34,23,30.08,29.98,19,6,26,0.00
2014-2-24,46.2,38.1,32.3,15.8,9.6,6.5,37,31,25,30.02,29.91,23,6,27,0.00
2014-2-25,46.9,31.7,8.4,17.7,12.0,4.6,86,47,29,30.05,29.81,22,5,24,0.00
2014-2-26,46.9,30.3,7.3,18.9,13.3,3.6,91,53,29,30.10,30.01,11,2,17,0.00
2014-2-27,41.2,34.3,29.0,27.8,20.1,16.6,88,56,44,30.01,29.57,22,5,24,0.00
2014-2-28,42.0,33.7,27.9,22.3,17.3,11.4,67,52,31,29.84,29.59,27,8,33,0.00
2014-3-1,37.4,33.3,30.0,30.9,25.9,21.9,95,74,62,29.85,29.65,26,6,37,0.03
2014-3-2,39.3,31.1,26.1,24.3,20.3,16.0,85,65,45,30.13,29.81,12,2,13,0.00
2014-3-3,43.8,32.3,27.3,19.8,16.5,14.8,63,52,37,30.12,30.00,18,3,18,0.00
2014-3-4,40.7,32.6,29.4,18.7,14.5,12.1,53,47,38,30.00,29.88,20,3,20,0.00
2014-3-5,44.6,35.8,22.3,25.2,12.1,7.0,90,40,26,30.19,29.93,16,4,16,0.06
2014-3-6,49.6,39.9,30.9,16.8,11.3,6.5,44,31,21,30.17,29.78,21,6,26,0.00
2014-3-7,40.4,30.9,21.3,27.7,21.7,16.7,91,71,45,30.11,29.68,21,3,27,0.00
2014-3-8,35.2,25.4,18.6,23.8,18.9,15.5,91,77,56,30.51,30.12,9,1,12,0.41
2014-3-9,54.2,38.7,23.6,24.8,12.5,3.6,68,37,19,30.51,30.15,13,3,14,0.01
2014-3-10,52.7,43.0,38.2,11.7,4.4,-1.4,27,20,12,30.15,29.62,27,6,27,0.00
2014-3-11,41.0,29.8,15.7,18.3,11.4,4.9,83,49,22,30.28,29.53,24,5,26,0.00
2014-3-12,42.5,21.9,11.4,13.5,7.7,1.9,82,59,19,30.52,30.28,14,2,14,0.05
2014-3-13,43.7,34.7,27.6,20.0,10.7,1.6,60,37,27,30.36,29.91,19,6,25,0.00
2014-3-14,47.8,35.2,25.7,20.5,15.8,3.6,66,47,22,30.08,29.94,12,2,15,0.00
2014-3-15,33.6,29.1,20.7,16.5,9.8,2.6,52,44,27,30.35,29.88,22,5,27,0.00
2014-3-16,50.6,33.0,19.3,17.5,9.9,4.0,56,40,23,30.46,30.09,15,5,22,0.00
2014-3-17,49.9,38.3,30.8,23.4,11.4,6.1,68,34,21,30.09,29.33,24,6,36,0.00
2014-3-18,35.4,23.6,15.9,17.1,6.1,-0.4,88,50,29,30.17,29.39,27,6,27,0.00
2014-3-19,41.2,26.0,12.5,20.8,11.2,3.1,88,59,23,30.35,30.17,18,4,20,0.19
2014-3-20,49.6,38.3,31.5,10.9,2.3,-3.1,30,22,16,30.24,29.88,20,6,26,0.00
2014-3-21,45.9,33.6,23.5,18.4,10.3,1.8,72,40,22,30.06,29.82,12,3,15,0.00
2014-3-22,44.0,26.0,17.3,20.0,15.2,11.1,90,66,34,30.34,30.01,20,4,21,0.00
2014-3-23,43.3,29.8,16.7,17.1,10.9,-0.1,90,53,18,30.34,30.17,23,4,27,0.00
2014-3-24,47.8,36.5,29.1,14.0,6.4,1.7,46,28,20,30.17,30.03,20,4,22,0.00
2014-3-25,54.6,40.6,30.1,18.4,11.9,7.3,51,32,19,30.12,29.74,17,2,17,0.00
2014-3-26,47.4,37.5,30.1,26.7,20.6,10.8,87,52,33,29.74,29.32,25,5,35,0.00
2014-3-27,40.9,32.1,27.3,22.4,16.2,9.1,71,53,28,29.87,29.37,24,6,26,0.00
2014-3-28,39.9,31.2,24.3,18.5,11.0,5.1,72,45,28,30.30,29.85,19,4,21,0.00
2014-3-29,50.7,37.9,26.3,14.7,9.4,1.9,42,31,21,30.30,29.97,20,5,24,0.00
2014-3-30,48.6,41.2,29.9,21.9,14.6,7.8,63,34,26,29.97,29.42,32,9,43,0.00
2014-3-31,43.1,32.3,23.9,11.8,6.1,-7.2,57,36,13,30.00,29.57,24,7,34,0.00
2014-4-1,50.7,35.1,19.4,18.4,13.0,8.2,79,45,22,29.97,29.67,32,6,40,0.00
2014-4-2,42.4,36.4,29.2,18.1,12.7,4.8,56,38,27,29.68,29.47,30,9,33,0.00
2014-4-3,29.9,24.9,20.2,24.8,20.0,15.1,90,82,54,30.22,29.59,12,2,23,0.13
2014-4-4,37.8,26.6,18.0,23.1,17.7,13.8,91,71,45,30.26,30.08,11,2,14,0.12
2014-4-5,39.9,30.2,25.9,27.1,20.3,13.3,92,68,44,30.08,29.85,16,2,23,0.00
2014-4-6,39.9,29.1,22.2,26.1,20.7,12.6,92,72,41,30.06,29.93,13,2,18,0.13
2014-4-7,42.5,32.3,22.7,20.2,15.2,9.9,78,52,27,30.28,30.05,19,5,28,0.00
2014-4-8,56.4,42.3,30.3,25.1,20.7,16.3,64,44,27,30.28,30.13,16,4,19,0.00
2014-4-9,57.7,48.5,41.0,23.7,18.2,13.3,40,30,21,30.13,29.82,25,6,32,0.00
2014-4-10,58.5,49.4,41.1,25.3,16.5,12.2,53,27,21,29.87,29.75,21,4,29,0.00
2014-4-11,62.0,49.6,36.1,27.2,19.3,13.5,67,33,18,29.90,29.72,21,4,23,0.00
2014-4-12,58.2,47.4,40.0,26.2,18.0,9.8,55,32,22,29.72,29.45,18,4,22,0.00
2014-4-13,41.3,28.1,10.9,30.3,21.9,7.7,92,79,48,30.08,29.47,18,4,22,0.00
2014-4-14,34.1,19.6,6.6,24.8,13.8,3.3,88,79,56,30.51,30.08,14,2,16,0.29
2014-4-15,47.3,35.2,21.8,18.0,11.7,7.2,78,40,23,30.42,29.80,21,5,25,0.00
2014-4-16,47.8,36.5,24.7,27.7,17.7,8.4,92,52,28,30.00,29.69,17,5,22,0.00
2014-4-17,48.5,34.2,24.0,33.6,26.9,22.0,93,77,44,30.20,30.00,13,2,13,0.47
2014-4-18,61.2,49.8,36.6,29.7,25.2,21.5,75,39,27,30.12,29.79,17,4,21,0.00
2014-4-19,56.6,46.1,38.4,37.4,31.3,24.3,86,58,40,29.91,29.75,15,3,17,0.07
2014-4-20,56.1,43.7,37.0,38.9,34.4,31.2,87,71,43,30.06,29.88,12,2,18,0.12
2014-4-21,55.8,45.1,38.2,37.3,32.0,27.0,72,60,47,30.13,30.02,13,2,16,0.00
2014-4-22,59.8,48.1,38.8,35.8,31.7,28.5,79,54,36,30.06,29.58,25,5,38,0.00
2014-4-23,52.6,44.2,33.7,30.4,23.3,15.7,57,44,29,29.70,29.42,22,5,30,0.00
2014-4-24,54.9,40.9,27.2,17.3,12.4,7.8,51,33,21,29.96,29.70,17,4,23,0.00
2014-4-25,61.5,49.2,38.9,18.7,13.8,9.7,33,24,15,29.91,29.52,28,6,32,0.00
2014-4-26,56.2,44.6,28.2,30.6,22.6,17.4,91,45,27,29.53,29.19,29,6,35,0.01
2014-4-27,42.6,34.5,27.1,23.9,17.9,13.6,84,52,35,29.65,29.15,27,8,36,0.01
2014-4-28,36.6,28.7,23.0,19.2,12.9,6.4,64,52,36,30.07,29.63,20,6,27,0.00
2014-4-29,41.6,30.2,20.4,12.7,9.0,5.2,58,41,26,30.30,30.07,22,6,25,0.00
2014-4-30,44.1,32.9,23.0,20.6,12.7,6.9,61,45,23,30.31,30.18,18,3,19,0.00
2014-5-1,46.1,34.4,22.1,18.0,10.9,1.6,69,41,20,30.30,30.15,21,4,29,0.00
2014-5-2,60.4,47.0,32.8,24.1,18.6,11.6,42,33,23,30.20,29.92,14,3,18,0.00
2014-5-3,67.3,55.6,45.0,24.1,20.3,13.2,41,27,15,29.93,29.73,16,4,18,0.00
2014-5-4,69.0,56.8,49.4,24.7,17.6,12.5,28,22,16,29.76,29.60,21,6,25,0.00
2014-5-5,68.2,56.7,47.6,22.4,16.4,12.7,30,21,15,29.73,29.51,22,4,24,0.00
2014-5-6,63.2,53.1,45.8,22.1,14.4,9.2,29,22,13,29.53,29.32,26,6,31,0.00
2014-5-7,55.4,44.8,33.2,23.2,16.3,11.2,65,33,22,29.57,29.39,26,6,32,0.00
2014-5-8,47.3,37.3,30.1,26.2,18.9,13.9,68,47,34,29.95,29.57,18,4,21,0.00
2014-5-9,52.1,40.6,32.3,27.5,22.7,18.3,61,49,34,29.95,29.78,18,6,23,0.00
2014-5-10,59.2,47.2,38.6,30.4,26.3,21.8,63,45,26,29.85,29.50,17,4,25,0.00
2014-5-11,48.2,33.7,22.7,33.2,28.1,20.5,100,82,44,29.92,29.40,19,4,21,0.24
2014-5-12,29.1,23.3,19.9,23.4,20.2,17.4,92,88,74,30.52,29.92,13,2,13,0.08
2014-5-13,34.1,24.7,16.6,25.1,19.4,13.7,91,81,61,30.67,30.51,8,2,11,0.28
2014-5-14,42.0,32.0,21.4,23.8,19.7,15.6,91,63,40,30.66,30.41,18,2,19,0.18
2014-5-15,53.3,41.7,28.1,27.7,23.9,18.9,76,50,33,30.41,30.14,14,2,19,0.00
2014-5-16,60.9,48.2,38.0,38.2,28.8,22.4,90,51,26,30.14,29.86,18,3,27,0.01
2014-5-17,63.4,49.0,36.0,39.7,33.8,22.2,95,63,22,29.94,29.79,18,3,22,0.05
2014-5-18,68.2,55.7,43.2,36.0,28.3,18.2,72,39,21,29.83,29.56,25,4,29,0.00
2014-5-19,71.1,58.9,48.4,24.3,17.9,11.7,25,20,13,29.59,29.48,24,6,28,0.00
2014-5-20,67.8,58.1,47.4,24.7,17.0,11.7,33,20,14,29.69,29.58,24,6,25,0.00
2014-5-21,61.4,52.0,45.0,44.7,38.6,12.7,92,63,20,29.88,29.69,14,4,19,0.00
2014-5-22,62.6,48.6,41.1,44.2,39.9,36.3,91,74,39,30.05,29.88,16,3,21,0.11
2014-5-23,61.7,46.5,39.7,43.6,39.6,36.3,93,78,43,30.05,29.84,23,2,23,0.62
2014-5-24,59.1,43.9,35.4,42.5,36.9,32.8,92,78,45,29.94,29.78,8,2,15,1.01
2014-5-25,51.7,42.2,35.9,39.5,35.3,30.5,93,78,48,30.00,29.83,15,2,21,0.01
2014-5-26,60.2,46.9,35.9,42.6,35.4,31.1,84,66,39,30.04,29.93,12,1,12,0.02
2014-5-27,69.6,57.2,45.5,38.8,34.7,24.8,71,46,21,30.02,29.90,18,3,18,0.00
2014-5-28,74.7,60.4,50.4,40.5,34.8,28.1,55,40,21,29.93,29.78,20,2,20,0.00
2014-5-29,72.9,58.6,49.8,44.2,38.7,33.6,80,50,29,29.82,29.67,20,3,25,0.01
2014-5-30,61.4,52.6,48.0,50.1,43.6,41.3,84,72,51,29.92,29.78,14,2,17,0.03
2014-5-31,66.8,55.2,45.7,48.9,41.8,37.4,87,63,37,29.92,29.75,14,2,15,0.06
2014-6-1,69.9,59.4,48.2,43.8,28.9,16.8,79,38,15,29.77,29.64,21,4,29,0.00
2014-6-2,75.1,58.5,45.9,46.4,38.5,17.0,91,53,21,29.82,29.71,15,3,18,0.00
2014-6-3,75.1,63.6,50.8,44.3,29.6,16.6,76,31,15,29.74,29.51,29,4,38,0.00
2014-6-4,74.7,63.7,51.0,43.8,30.4,10.8,55,30,16,29.63,29.46,14,3,20,0.00
2014-6-5,69.3,58.0,46.3,45.7,39.2,16.7,87,53,19,29.73,29.57,17,3,17,0.00
2014-6-6,73.4,57.5,44.7,47.1,40.0,25.5,84,57,19,29.76,29.59,17,3,18,0.00
2014-6-7,62.9,51.4,44.7,47.8,42.9,39.3,88,73,54,29.85,29.67,15,3,22,0.00
2014-6-8,59.5,48.4,38.8,45.2,37.8,25.8,94,70,34,29.88,29.67,18,3,24,0.04
2014-6-9,67.7,49.0,34.8,31.1,25.7,18.3,78,44,17,30.00,29.86,15,3,17,0.00
2014-6-10,72.5,58.3,43.1,33.0,28.1,24.2,52,33,19,29.93,29.69,18,3,24,0.00
2014-6-11,72.5,56.6,48.2,40.2,32.8,27.8,71,42,23,29.80,29.57,32,3,32,0.00
2014-6-12,67.1,51.7,42.5,47.3,42.0,38.5,92,71,46,29.93,29.77,14,2,15,0.01
2014-6-13,75.9,60.2,45.5,41.9,35.2,28.5,79,45,20,29.91,29.50,20,5,27,0.00
2014-6-14,69.4,56.8,46.7,35.3,26.0,19.1,46,31,17,29.63,29.28,28,6,38,0.00
2014-6-15,69.8,55.3,41.9,34.0,23.6,14.2,53,31,15,29.75,29.61,23,3,30,0.00
2014-6-16,71.0,61.2,51.5,22.5,17.7,14.5,24,19,14,29.64,29.46,28,7,36,0.00
2014-6-17,70.3,61.0,51.9,30.8,24.8,14.9,32,25,17,29.57,29.47,36,9,39,0.00
2014-6-18,66.7,57.0,48.6,34.2,29.3,25.5,55,35,24,29.71,29.51,25,8,29,0.00
2014-6-19,72.2,59.4,39.1,39.0,31.4,26.3,77,38,21,29.90,29.71,20,3,20,0.00
2014-6-20,77.4,63.9,49.2,33.4,28.0,23.7,46,27,16,29.88,29.66,16,2,19,0.00
2014-6-21,74.2,63.0,54.6,44.9,34.3,26.8,65,36,22,29.69,29.58,21,2,28,0.00
2014-6-22,72.0,58.8,51.2,38.8,32.8,26.6,56,38,23,29.78,29.64,24,3,26,0.00
2014-6-23,71.5,54.6,42.1,45.8,40.3,32.1,88,62,25,29.92,29.78,18,3,22,0.01
2014-6-24,73.7,58.2,45.6,48.4,39.4,30.1,87,55,23,29.91,29.78,18,3,28,0.00
2014-6-25,76.5,60.8,48.6,47.5,40.9,31.0,88,54,22,29.84,29.64,23,3,28,0.00
2014-6-26,78.7,66.0,55.3,37.3,32.0,21.7,50,30,17,29.70,29.37,22,3,30,0.00
2014-6-27,69.5,61.7,55.2,34.3,29.2,21.2,42,30,19,29.51,29.36,25,6,27,0.00
2014-6-28,73.0,61.3,50.7,34.0,29.7,21.3,51,33,15,29.74,29.51,19,5,24,0.00
2014-6-29,82.4,68.6,57.0,36.7,30.5,25.2,30,25,18,29.74,29.57,19,5,25,0.00
2014-6-30,82.6,70.5,55.8,44.6,34.4,28.7,65,29,16,29.60,29.48,21,4,26,0.00
2014-7-1,66.8,54.7,46.1,48.2,45.0,42.1,90,71,50,29.98,29.58,15,4,19,0.00
2014-7-2,66.9,54.0,46.9,49.7,45.3,41.1,90,73,53,30.02,29.87,14,3,17,0.01
2014-7-3,77.3,60.8,48.2,47.6,42.3,34.8,92,55,25,30.00,29.85,19,2,22,0.01
2014-7-4,80.3,62.1,53.5,48.8,41.9,37.5,79,50,23,29.94,29.78,21,3,26,0.02
2014-7-5,79.8,62.9,49.4,46.6,41.0,34.6,77,48,24,29.94,29.89,20,3,20,0.00
2014-7-6,80.0,67.2,54.8,43.8,38.4,36.1,52,36,22,29.90,29.75,21,2,23,0.00
2014-7-7,83.8,67.5,59.6,42.2,39.3,36.8,46,36,22,29.81,29.62,18,2,21,0.00
2014-7-8,73.5,59.0,52.5,54.3,47.3,38.8,89,66,44,29.94,29.74,20,4,24,0.10
2014-7-9,77.6,64.5,54.4,46.5,42.6,39.6,63,46,29,29.92,29.72,20,3,24,0.00
2014-7-10,80.6,66.7,56.8,44.9,42.4,39.9,57,42,25,29.74,29.61,23,3,23,0.00
2014-7-11,79.0,65.3,57.3,52.5,46.3,41.4,70,51,31,29.80,29.66,13,2,18,0.08
2014-7-12,80.2,59.7,52.3,55.2,48.2,45.8,91,67,34,30.02,29.79,17,2,27,0.26
2014-7-13,71.9,58.8,50.4,53.8,50.9,46.3,92,76,48,30.03,29.93,14,2,16,0.02
2014-7-14,74.2,59.4,51.5,55.3,51.6,47.8,95,78,41,29.99,29.89,14,2,21,0.04
2014-7-15,73.1,56.7,48.9,54.1,49.1,43.0,94,78,36,29.99,29.80,18,2,23,0.17
2014-7-16,71.1,58.4,45.2,51.5,45.9,42.1,95,66,37,29.83,29.63,25,4,30,0.65
2014-7-17,65.9,53.2,45.4,52.3,47.7,44.1,96,83,57,29.90,29.72,15,2,18,0.12
2014-7-18,75.3,58.3,48.8,52.9,45.9,40.0,93,67,29,29.90,29.76,13,2,23,0.17
2014-7-19,75.1,61.9,52.6,50.0,43.5,38.6,77,52,29,29.85,29.77,20,2,29,0.17
2014-7-20,81.5,67.4,58.4,46.6,41.9,38.1,54,40,25,29.81,29.69,17,3,23,0.00
2014-7-21,77.7,66.7,60.1,47.0,42.4,36.7,52,42,26,29.84,29.74,13,2,16,0.00
2014-7-22,84.6,70.8,59.0,47.7,40.9,30.6,66,35,16,29.97,29.82,18,3,22,0.04
2014-7-23,81.7,68.4,55.8,51.7,43.9,33.6,75,44,21,29.98,29.83,20,2,23,0.00
2014-7-24,82.2,66.8,54.9,51.6,46.1,43.1,85,49,28,29.88,29.64,21,3,22,0.06
2014-7-25,81.6,65.8,59.0,55.1,46.4,43.8,81,51,29,29.78,29.68,14,2,19,0.13
2014-7-26,80.9,62.9,54.6,53.2,47.6,43.2,87,59,30,29.96,29.75,13,1,16,0.24
2014-7-27,72.6,59.0,52.7,54.8,49.5,44.9,90,72,48,30.08,29.91,24,1,24,0.05
2014-7-28,71.7,56.5,51.8,56.5,51.3,47.3,95,84,45,30.09,29.97,15,1,18,0.34
2014-7-29,67.0,57.9,50.7,53.6,49.2,45.7,93,74,53,30.03,29.85,11,1,14,0.01
2014-7-30,56.2,51.5,47.6,52.6,49.6,46.5,96,93,85,30.09,29.85,12,2,14,0.53
2014-7-31,55.2,49.8,47.1,52.3,48.4,46.0,100,95,88,30.11,30.04,9,1,13,0.31
2014-8-1,58.7,50.7,46.7,52.5,48.1,43.3,97,91,76,30.11,30.05,12,1,16,0.28
2014-8-2,69.3,55.4,44.7,51.3,46.1,41.7,91,73,47,30.14,30.00,15,1,16,0.00
2014-8-3,72.0,59.7,50.7,53.2,47.9,43.6,83,66,45,30.04,29.86,14,1,20,0.07
2014-8-4,73.3,59.5,51.6,51.0,47.8,45.3,90,67,41,29.90,29.76,17,2,17,0.01
2014-8-5,71.7,60.3,50.6,48.9,45.9,40.5,92,62,35,29.89,29.80,15,3,18,0.00
2014-8-6,77.1,64.1,54.2,47.6,41.9,29.4,72,47,18,29.86,29.74,16,3,18,0.00
2014-8-7,72.0,60.8,54.1,50.9,45.6,38.9,80,59,35,29.80,29.69,17,2,22,0.04
2014-8-8,75.2,59.9,48.5,50.1,44.1,32.3,92,62,23,29.85,29.76,18,2,19,0.00
2014-8-9,75.1,62.1,53.3,49.7,39.7,31.5,68,47,22,29.91,29.78,16,2,19,0.08
2014-8-10,68.7,54.7,44.8,50.8,43.7,38.5,92,68,45,30.16,29.91,17,2,23,0.29
2014-8-11,69.0,56.0,45.0,50.0,45.0,41.5,89,69,43,30.18,30.10,13,1,14,0.01
2014-8-12,75.8,61.6,52.2,48.5,45.1,40.3,77,57,31,30.10,29.86,15,1,16,0.02
2014-8-13,77.6,63.5,54.7,49.9,45.7,42.6,67,54,31,29.92,29.73,14,2,19,0.00
2014-8-14,70.5,60.3,55.3,50.4,48.0,46.0,75,64,46,29.82,29.69,15,2,18,0.06
2014-8-15,74.0,60.7,53.1,48.0,44.8,39.9,73,57,33,29.88,29.77,18,2,27,0.01
2014-8-16,76.1,63.3,52.8,46.4,41.9,36.8,69,48,28,29.93,29.83,14,1,21,0.02
2014-8-17,80.5,65.4,55.4,46.1,40.0,36.3,54,41,24,29.86,29.72,16,2,18,0.05
2014-8-18,78.3,66.2,54.5,42.9,37.9,31.4,55,37,20,29.82,29.65,13,2,14,0.00
2014-8-19,75.8,62.6,56.4,45.8,41.6,37.1,63,47,28,29.67,29.52,19,3,19,0.00
2014-8-20,75.1,62.3,55.5,46.4,42.5,40.1,63,49,30,29.66,29.56,23,3,23,0.00
2014-8-21,73.6,62.7,53.8,42.1,37.9,33.5,52,41,28,29.78,29.66,13,3,16,0.00
2014-8-22,61.8,53.5,47.2,49.4,45.2,41.4,93,75,49,29.80,29.70,9,0,10,0.14
2014-8-23,62.9,53.2,46.2,48.1,42.0,37.7,84,67,48,29.83,29.77,19,4,22,0.01
2014-8-24,69.4,59.1,18.8,48.4,40.0,5.6,69,50,35,1008.50,29.75,15,2,15,0.01
2014-8-25,70.4,59.8,53.9,48.0,41.9,36.4,71,52,39,29.83,29.75,15,2,18,0.03
2014-8-26,67.8,53.7,48.7,49.6,46.7,43.0,94,79,42,29.98,29.82,30,2,32,0.16
2014-8-27,63.8,53.2,48.3,46.3,42.6,34.8,92,69,46,29.97,29.88,21,3,24,0.04
2014-8-28,61.3,50.7,47.0,46.9,39.9,34.6,85,67,46,29.98,29.88,15,2,19,0.11
2014-8-29,72.1,56.4,47.8,42.1,38.2,31.4,77,53,25,29.99,29.84,11,2,14,0.00
2014-8-30,73.1,58.3,46.5,42.3,38.8,36.7,76,51,28,29.92,29.72,13,2,18,0.00
2014-8-31,72.6,62.9,56.3,39.9,36.3,32.7,49,38,25,29.72,29.54,22,6,27,0.00
2014-9-1,73.9,59.8,44.1,42.1,35.6,30.2,87,46,21,29.81,29.60,23,3,28,0.00
2014-9-2,77.6,62.2,48.7,40.5,36.6,30.7,70,42,20,29.82,29.66,17,2,21,0.00
2014-9-3,80.1,67.8,59.0,40.0,34.1,30.1,46,29,21,29.67,29.48,17,3,26,0.00
2014-9-4,76.0,63.0,46.9,45.5,35.1,28.7,84,38,23,29.79,29.53,14,2,19,0.03
2014-9-5,63.0,48.1,43.0,47.4,42.9,40.2,93,83,56,30.19,29.79,10,2,13,0.02
2014-9-6,67.9,51.9,42.5,49.4,44.7,40.6,96,79,44,30.19,30.04,12,2,17,0.04
2014-9-7,71.2,56.4,46.4,47.3,43.2,39.9,93,64,33,30.08,29.86,14,2,19,0.00
2014-9-8,65.2,57.7,52.8,45.5,42.0,38.2,63,56,47,29.87,29.72,10,2,17,0.00
2014-9-9,65.2,55.1,51.0,50.3,44.3,38.3,85,67,52,29.72,29.58,12,2,18,0.12
2014-9-10,66.5,53.7,46.1,41.9,37.3,31.2,82,57,29,29.86,29.70,11,2,16,0.00
2014-9-11,69.9,53.4,41.5,45.6,37.6,28.7,94,60,22,29.96,29.77,16,2,17,0.00
2014-9-12,44.4,34.7,28.9,39.9,31.7,27.4,100,89,69,30.32,29.96,14,2,15,0.14
2014-9-13,70.3,53.5,30.1,36.1,30.9,26.6,95,46,20,30.32,29.97,17,4,22,0.00
2014-9-14,73.0,59.8,47.6,37.1,32.8,28.8,52,37,22,29.97,29.80,15,2,25,0.00
2014-9-15,66.7,56.9,49.2,45.3,38.5,31.2,80,52,32,29.99,29.86,14,1,16,0.00
2014-9-16,75.0,62.0,48.8,43.7,38.1,34.1,82,44,24,29.99,29.81,11,2,14,0.00
2014-9-17,75.3,61.8,52.8,42.1,37.3,34.0,55,41,26,29.82,29.67,13,1,21,0.00
2014-9-18,74.7,62.0,50.2,40.6,36.2,30.6,56,40,25,29.76,29.63,14,1,20,0.00
2014-9-19,75.8,62.1,51.6,41.3,37.8,34.6,54,42,25,29.74,29.61,11,1,21,0.00
2014-9-20,74.4,61.2,49.0,47.8,41.0,35.9,92,49,31,29.98,29.74,15,2,18,0.99
2014-9-21,57.3,50.6,48.4,52.8,48.4,46.8,95,92,80,30.10,29.96,11,1,13,0.08
2014-9-22,62.9,53.1,47.0,51.9,46.0,40.1,98,78,52,30.10,29.92,9,2,14,0.12
2014-9-23,66.6,56.6,50.5,44.1,40.6,37.0,71,56,39,29.97,29.85,11,1,14,0.00
2014-9-24,73.2,59.1,48.8,43.4,38.4,35.2,67,48,27,30.02,29.91,11,1,13,0.00
2014-9-25,74.6,60.9,51.3,45.5,39.7,36.5,60,47,31,29.97,29.81,12,2,15,0.00
2014-9-26,76.1,60.7,48.5,44.1,38.8,32.3,67,46,29,29.85,29.68,17,1,18,0.00
2014-9-27,74.4,59.9,49.8,44.8,36.3,30.7,63,43,27,29.75,29.57,16,1,19,0.00
2014-9-28,60.3,52.6,45.4,48.1,41.9,30.8,91,68,38,29.81,29.63,12,2,21,0.41
2014-9-29,56.8,44.7,38.8,45.9,37.9,28.7,91,77,55,29.81,29.61,18,3,25,0.59
2014-9-30,51.4,43.5,37.6,32.3,29.0,25.6,67,57,45,29.85,29.77,20,6,24,0.00
2014-10-1,51.3,42.5,37.6,38.7,28.9,20.9,88,59,43,29.88,29.73,18,4,26,0.02
2014-10-2,52.6,40.7,29.2,25.6,21.6,16.5,72,48,28,30.15,29.87,12,3,20,0.00
2014-10-3,59.3,44.5,26.7,30.4,23.5,18.8,92,47,24,30.24,30.13,14,2,15,0.00
2014-10-4,64.8,51.9,38.7,31.7,25.3,17.6,49,36,26,30.15,29.83,15,3,17,0.00
2014-10-5,63.6,51.0,40.7,30.6,23.1,16.4,51,35,17,29.92,29.79,17,3,18,0.00
2014-10-6,65.3,52.1,45.0,31.1,26.9,23.8,47,38,24,29.90,29.76,23,5,26,0.00
2014-10-7,66.3,54.6,43.6,31.5,26.4,21.2,47,34,23,29.89,29.80,16,2,17,0.00
2014-10-8,68.2,53.5,45.8,35.1,30.5,21.4,57,43,19,29.88,29.73,11,2,14,0.00
2014-10-9,50.0,42.6,34.2,41.1,37.3,32.8,95,83,55,30.05,29.74,16,0,16,0.81
2014-10-10,40.7,36.8,34.4,39.2,35.3,33.1,96,94,86,30.22,30.05,6,0,9,0.21
2014-10-11,56.2,46.2,36.6,38.9,33.7,28.8,95,64,42,30.16,29.76,16,3,21,0.00
2014-10-12,46.6,39.6,31.4,35.2,29.3,22.1,91,67,52,29.99,29.51,24,3,25,0.06
2014-10-13,48.2,36.7,28.3,24.7,21.2,18.2,77,55,34,30.24,29.99,15,3,17,0.00
2014-10-14,64.5,44.8,31.4,32.0,24.6,18.6,65,47,25,30.23,30.09,8,1,9,0.00
2014-10-15,64.5,54.0,46.2,28.1,24.5,20.6,46,32,21,30.09,29.75,21,4,24,0.00
2014-10-16,64.1,54.9,45.1,29.7,24.8,18.3,49,32,22,29.83,29.73,17,3,23,0.00
2014-10-17,60.8,45.1,34.9,33.7,28.3,25.6,69,53,27,30.05,29.80,11,1,12,0.00
2014-10-18,59.3,46.7,37.3,35.6,31.7,27.9,74,57,35,30.05,29.93,8,1,10,0.00
2014-10-19,63.5,50.9,45.0,38.8,34.3,32.6,66,54,36,29.97,29.86,12,2,16,0.01
2014-10-20,61.6,49.1,41.8,37.2,33.7,31.3,71,56,35,30.03,29.93,11,1,15,0.00
2014-10-21,59.7,48.8,41.7,37.6,34.8,31.2,85,59,39,29.94,29.77,14,3,21,0.06
2014-10-22,55.5,47.0,41.9,37.4,33.9,30.9,75,61,42,30.02,29.81,12,2,18,0.00
2014-10-23,60.9,50.4,42.7,33.6,29.0,25.0,58,44,33,30.08,29.98,14,3,15,0.00
2014-10-24,67.9,56.8,50.1,28.2,23.6,18.6,40,28,16,30.06,29.95,15,3,17,0.00
2014-10-25,67.3,56.8,48.0,27.9,22.0,17.0,36,26,15,30.02,29.78,16,2,22,0.00
2014-10-26,63.2,52.8,46.7,32.6,27.5,21.7,55,38,26,29.78,29.55,21,4,25,0.00
2014-10-27,51.5,42.7,24.7,29.1,24.2,12.7,79,50,25,29.96,29.53,18,3,21,0.00
2014-10-28,54.1,39.1,22.7,18.9,11.1,5.2,81,35,18,30.22,29.96,16,2,18,0.00
2014-10-29,57.7,45.7,33.9,17.1,11.6,6.7,33,25,19,30.19,30.03,22,3,22,0.00
2014-10-30,56.7,44.0,36.2,25.2,19.2,13.4,53,37,27,30.27,30.10,12,2,14,0.00
2014-10-31,53.7,41.3,29.7,27.7,22.6,19.3,66,49,31,30.27,30.05,20,3,26,0.00
2014-11-1,53.0,46.0,39.8,37.5,33.0,27.3,76,61,46,30.05,29.75,26,5,34,0.01
2014-11-2,44.5,39.1,31.9,37.3,32.7,29.1,91,78,63,29.79,29.70,19,3,21,0.11
2014-11-3,41.4,33.6,26.4,30.5,20.9,14.2,89,62,37,30.22,29.73,21,3,22,0.00
2014-11-4,47.5,34.4,23.2,24.5,15.4,3.3,90,52,18,30.38,30.22,18,1,18,0.00
2014-11-5,55.8,40.7,29.1,26.0,15.9,5.5,47,37,28,30.38,30.21,12,2,14,0.00
2014-11-6,60.9,45.9,33.7,25.5,19.2,13.9,47,35,25,30.39,30.08,16,1,16,0.00
2014-11-7,57.9,47.3,33.5,28.2,19.3,13.3,79,35,24,30.14,29.88,19,3,20,0.00
2014-11-8,56.7,42.0,28.4,27.8,19.4,7.5,89,49,15,30.25,30.08,15,2,18,0.00
2014-11-9,56.4,47.7,42.9,18.4,12.6,8.3,27,24,20,30.08,29.48,18,5,23,0.00
2014-11-10,53.3,38.2,11.1,24.6,17.4,8.1,88,47,24,29.76,29.31,25,6,27,0.00
2014-11-11,26.2,10.6,2.5,16.2,5.5,-1.5,89,80,53,30.42,29.76,15,2,15,0.00
2014-11-12,2.5,-3.8,-8.9,-1.5,-8.1,-13.6,83,81,79,30.85,30.42,10,1,13,0.00
2014-11-13,32.7,15.1,-11.2,24.6,8.9,-16.1,90,76,65,30.87,30.28,14,2,17,0.11
2014-11-14,39.4,32.6,27.7,24.3,21.0,14.6,78,63,48,30.28,29.77,20,4,25,0.00
2014-11-15,37.2,25.3,3.9,22.1,15.0,-0.1,86,66,44,30.00,29.75,18,4,23,0.00
2014-11-16,24.7,11.9,1.8,9.0,1.8,-2.4,86,66,36,30.53,29.99,13,2,16,0.00
2014-11-17,28.7,18.5,8.3,1.6,-1.4,-5.8,56,42,29,30.52,30.37,21,4,22,0.00
2014-11-18,34.8,25.0,13.9,6.1,1.7,-2.6,50,37,29,30.44,30.26,21,5,24,0.00
2014-11-19,43.6,34.1,27.2,7.4,0.9,-2.6,32,24,17,30.26,30.04,18,4,23,0.00
2014-11-20,46.9,35.4,29.0,18.2,5.1,-3.4,45,28,20,30.04,29.93,13,2,17,0.00
2014-11-21,42.9,34.0,28.6,14.7,12.9,10.0,54,42,29,30.03,29.92,18,3,24,0.00
2014-11-22,44.8,34.9,29.7,25.2,14.7,9.7,76,45,25,30.03,29.57,23,5,30,0.00
2014-11-23,32.3,23.6,13.9,22.7,11.8,-1.3,89,62,34,30.05,29.55,21,4,25,0.01
2014-11-24,25.3,17.3,13.4,8.5,0.9,-2.7,72,49,32,30.52,30.04,22,6,30,0.00
2014-11-25,35.1,25.4,14.2,17.2,8.9,-1.3,55,49,41,30.50,30.20,31,8,36,0.00
2014-11-26,46.7,37.3,31.5,23.0,20.2,16.3,62,50,38,30.32,30.18,19,4,25,0.01
2014-11-27,51.8,41.9,34.3,18.3,15.6,12.2,48,35,25,30.33,30.07,16,4,20,0.00
2014-11-28,55.1,45.9,38.8,13.1,9.5,6.2,32,23,17,30.07,29.73,19,5,25,0.00
2014-11-29,49.8,42.5,37.8,10.6,6.9,5.0,26,23,18,29.73,29.61,19,6,22,0.00
2014-11-30,46.4,35.2,9.8,12.4,8.6,4.9,84,35,25,30.12,29.69,19,4,19,0.00
2014-12-1,43.4,27.2,9.7,20.3,12.2,6.1,91,58,31,30.38,30.12,24,3,26,0.00
2014-12-2,47.7,39.5,33.7,11.8,7.3,2.9,38,27,17,30.31,29.95,19,5,20,0.00
2014-12-3,44.2,38.0,29.7,24.0,16.0,2.7,55,42,22,30.03,29.90,26,4,26,0.00
2014-12-4,42.2,38.8,35.6,24.7,22.9,21.3,62,53,45,30.00,29.83,19,2,23,0.00
2014-12-5,45.7,36.5,30.1,24.1,20.8,17.0,67,54,34,30.35,29.93,13,2,15,0.00
2014-12-6,40.4,33.0,27.0,25.6,22.8,19.6,77,66,53,30.38,30.30,17,2,24,0.00
2014-12-7,46.1,37.2,31.1,23.0,19.1,14.7,65,49,33,30.32,30.24,19,4,22,0.00
2014-12-8,49.9,37.7,29.9,16.0,11.4,6.5,53,35,19,30.34,30.26,9,0,10,0.00
2014-12-9,52.6,41.5,31.7,13.1,6.2,0.7,45,24,16,30.30,30.08,9,1,11,0.00
2014-12-10,52.1,39.4,30.4,13.0,3.7,-1.9,28,22,18,30.09,30.00,9,0,10,0.00
2014-12-11,51.4,41.3,33.0,16.7,10.2,0.9,39,28,21,30.09,29.98,11,2,15,0.00
2014-12-12,52.3,41.6,34.2,20.7,12.9,7.7,45,32,19,30.09,29.95,14,2,21,0.00
2014-12-13,43.6,38.4,30.3,27.4,21.5,16.1,89,51,37,29.95,29.62,22,4,31,0.00
2014-12-14,32.9,27.5,23.0,27.3,20.6,11.0,91,76,59,29.93,29.58,24,3,26,0.10
2014-12-15,31.2,23.5,17.7,11.3,7.6,3.8,64,51,37,30.32,29.93,19,4,22,0.00
2014-12-16,39.4,29.9,17.4,19.3,11.2,3.4,60,45,38,30.34,30.07,23,3,27,0.01
2014-12-17,31.8,27.7,24.0,22.7,17.6,11.7,82,66,50,30.07,29.89,5,0,9,0.00
2014-12-18,34.4,25.1,20.4,18.9,15.4,12.6,83,67,47,30.21,30.02,9,1,13,0.00
2014-12-19,30.9,24.4,18.6,12.7,9.8,6.9,71,54,41,30.27,30.17,19,4,20,0.00
2014-12-20,38.4,29.9,24.3,17.5,13.6,8.5,64,51,41,30.22,29.97,16,4,22,0.00
2014-12-21,36.5,31.6,26.7,26.3,18.5,13.6,90,59,48,29.97,29.66,24,6,30,0.00
2014-12-22,30.1,24.7,14.6,26.3,17.0,3.8,91,73,54,29.95,29.63,13,2,19,0.01
2014-12-23,23.6,15.1,7.9,5.3,-1.8,-6.0,67,47,30,30.41,29.94,16,3,21,0.00
2014-12-24,39.3,23.3,7.5,15.5,4.4,-5.7,59,44,35,30.38,29.75,25,3,25,0.00
2014-12-25,31.1,24.6,17.7,17.0,11.5,6.6,87,58,45,29.74,29.54,24,4,24,0.00
2014-12-26,17.7,9.6,6.1,14.3,6.2,2.3,87,86,84,29.99,29.71,15,3,16,0.00
2014-12-27,16.4,9.0,0.5,9.6,2.7,-3.4,85,76,55,30.60,30.39,22,8,22,0.07
2014-12-28,24.0,17.1,9.5,6.3,2.5,-4.9,59,52,45,30.46,30.16,24,13,24,0.00
2014-12-29,15.0,8.5,-4.4,8.9,3.0,-8.8,92,78,60,30.54,30.09,16,10,16,0.00
2014-12-30,-3.9,-8.0,-11.2,-8.8,-12.9,-16.1,81,79,77,30.95,30.55,10,1,10,0.00
2014-12-31,22.6,7.0,-9.2,16.3,2.2,-14.0,92,80,72,30.95,30.50,5,0,8,0.01
2015-1-1,18.6,11.6,6.2,14.6,7.8,1.8,92,85,81,30.50,30.22,4,0,6,0.00
2015-1-2,27.8,16.7,8.1,18.4,10.4,4.5,87,77,60,30.38,30.08,16,0,16,0.00